(64) Angelina
ephemeris date magn radius delta ra dec elong phase
Today5 Feb 202513.62.984 AU3.872 AU19h42m-21°44'22.4°7.2°
Opposition12 Aug 202511.73.014 AU2.001 AU21h27m-14°33'179.6°0.1°
(64) Angelina - 2025-02-05
astro.vanbuitenen.nl


 
-1 year
-1 month
-1 day
Now
+1 day
+1 month
+1 year

The interactive orbit chart above shows the body's path through the solar system and its position at the given date. Green and blue lines are shown perpendicular to the ecliptic plane: Green if the path is above the ecliptic plane, blue if it is below. (Left-click and drag to rotate the view; Right-click and drag to move the view; Use scroll wheel to zoom in our out.)

The orbital elements of Angelina are:

            e (Eccentricity)                : 0.1262504
            a (Semimajor axis)              : 2.6815801
            i (Inclination)                 : 1.30557
            Ω (Longitude of ascending node) : 308.96154
            ω (Argument of perihelion)      : 181.00063
            M (Mean anomaly)                : 125.19985
            Epoch                           : 2024 Oct 17

            L (Longitude of perihelion)     : 309.96191
            B (Latitude of perihelion)      : -0.02280
            P (Orbital period in years)     : 4.39            
        

The light curve chart below shows the estimated development of the minor planet's magnitude.


The all-sky chart below shows the path of the minor planet over the same period as the light curve. The current position is marked yellow.





The following chart shows the path of the minor planet in the next few days. The field of view is optimized for (~10x50) binoculars and finderscopes. A more printer-friendly version of the same chart can be found below.




Ephemerides:
Date       Time       RA (2000)    DEC (2000)    delta   radius  elong  phase   PA    magn
2025-02-05 00:00 UT   19 42 20.1   -21 44 57     3.872    2.984   22.4    7.2   259   13.6 
2025-02-05 04:52 UT   19 42 39.4   -21 44 08     3.871    2.984   22.6    7.3   259   13.6 
2025-02-06 00:00 UT   19 43 55.5   -21 40 55     3.867    2.985   23.1    7.4   259   13.6 
2025-02-07 00:00 UT   19 45 30.7   -21 36 50     3.862    2.985   23.7    7.6   259   13.6 
2025-02-08 00:00 UT   19 47 05.5   -21 32 42     3.857    2.986   24.4    7.8   259   13.7 
2025-02-09 00:00 UT   19 48 40.1   -21 28 31     3.851    2.986   25.0    8.0   259   13.7 
2025-02-10 00:00 UT   19 50 14.4   -21 24 18     3.846    2.987   25.6    8.2   259   13.7 
2025-02-11 00:00 UT   19 51 48.4   -21 20 02     3.840    2.987   26.3    8.4   258   13.7 
2025-02-12 00:00 UT   19 53 22.1   -21 15 43     3.834    2.988   26.9    8.6   258   13.7 
2025-02-13 00:00 UT   19 54 55.5   -21 11 22     3.829    2.988   27.6    8.8   258   13.7 
2025-02-14 00:00 UT   19 56 28.6   -21 06 58     3.823    2.989   28.2    9.0   258   13.7 
2025-02-15 00:00 UT   19 58 01.3   -21 02 32     3.816    2.989   28.8    9.2   258   13.7 
2025-02-16 00:00 UT   19 59 33.8   -20 58 03     3.810    2.990   29.5    9.4   258   13.7 
2025-02-17 00:00 UT   20 01 05.9   -20 53 32     3.804    2.990   30.1    9.5   258   13.7 
2025-02-18 00:00 UT   20 02 37.7   -20 48 58     3.797    2.991   30.8    9.7   258   13.7 
2025-02-19 00:00 UT   20 04 09.2   -20 44 22     3.790    2.991   31.4    9.9   258   13.7 
2025-02-20 00:00 UT   20 05 40.3   -20 39 44     3.783    2.992   32.1   10.1   257   13.7 
2025-02-21 00:00 UT   20 07 11.1   -20 35 04     3.776    2.992   32.7   10.3   257   13.7 
2025-02-22 00:00 UT   20 08 41.6   -20 30 22     3.769    2.993   33.3   10.5   257   13.7 
2025-02-23 00:00 UT   20 10 11.7   -20 25 37     3.762    2.993   34.0   10.6   257   13.7 
2025-02-24 00:00 UT   20 11 41.4   -20 20 51     3.755    2.994   34.6   10.8   257   13.7 
2025-02-25 00:00 UT   20 13 10.8   -20 16 03     3.747    2.994   35.3   11.0   257   13.7 
2025-02-26 00:00 UT   20 14 39.8   -20 11 12     3.739    2.995   35.9   11.2   257   13.7 
2025-02-27 00:00 UT   20 16 08.4   -20 06 20     3.731    2.995   36.6   11.4   257   13.7 
2025-02-28 00:00 UT   20 17 36.6   -20 01 26     3.724    2.995   37.2   11.5   257   13.7 


    Terminology:
            
    delta:  distance between minor planet and earth in AU
    radius: distance between minor planet and sun in AU
    magn:   magnitude (brightness) estimate    
    ra:     right ascension in hours (24h = 360deg)
    dec:    declination in degrees
    elong:  elongation in degrees (angle sun-earth-minor planet)    
    phase:  phase angle in degrees (angle sun-minor planet-earth)        
    AU:     Astronomical Unit (mean distance between earth and sun: 149597870.7 km
    

Orbital elements provided by the MPC (Minor Planet Center).
Calculations by a modified version of AAPlus, a C# implementation of the AA+ project by PJ Naughter from the algorithms presented in the book "Astronomical Algorithms" by Jean Meeus.
NGC2000 dso catalog and star labels from VizieR as provided by the Strasbourg astronomical Data Center.
Tycho2 catalog from the ESO archive.